Weather History for Statesville, NC

Change the Weather History Date:

Monday, December 23, 2013

  Actual Average (KHKY) Record (KHKY)
Temperature  
Mean Temperature 52 °F -  
Max Temperature 62 °F 50 °F 67 °F (1957)
Min Temperature 41 °F 31 °F 6 °F (1989)
Degree Days  
Heating Degree Days 14    
Growing Degree Days 2 (Base 50)    
Moisture  
Dew Point 52 °F    
Average Humidity 88    
Maximum Humidity 99    
Minimum Humidity 67    
Precipitation  
Precipitation 0.90 in - - ()
Sea Level Pressure  
Sea Level Pressure 30.07 in    
Wind  
Wind Speed 6 mph (WSW)    
Max Wind Speed 10 mph    
Max Gust Speed 16 mph    
Visibility 9 miles    
Events Rain    
Averages and records for this station are not official NWS values.
T = Trace of Precipitation, MM = Missing Value Source: NWS Daily Summary

Daily Weather History Graph

Daily Weather History Graph

Search for Another Location

Airport:

Trip Planner

Search our weather history database for the weather conditions in past years. The results will help you decide how hot, cold, wet, or windy it might be!

Date:

Astronomy

Dec. 23, 2013 Rise Set
Actual Time 7:31 AM EST 5:15 PM EST
Civil Twilight 7:02 AM EST 5:43 PM EST
Nautical Twilight 6:30 AM EST 6:15 PM EST
Astronomical Twilight 5:59 AM EST 6:46 PM EST
Moon 11:12 PM EST (12/23) 11:06 AM EST (12/23)
Length of Visible Light 10h 41m
Length of Day
9h 44m
Waning Gibbous, 68% of the Moon is Illuminated
Dec 23
Waning Gibbous
Dec 25
Last Quarter
Jan 1
New
Jan 7
First Quarter
Jan 15
Full

Hourly Weather History & Observations

Time (EST) Temp. Windchill Dew Point Humidity Pressure Visibility Wind Dir Wind Speed Gust Speed Precip Events Conditions
12:15 AM 62.2 °F - 61.7 °F 98% 30.04 in 7.0 mi South 6.9 mph - 0.03 in Rain Rain
12:35 AM 62.1 °F - 61.3 °F 97% 30.03 in 7.0 mi South 5.8 mph - 0.09 in Rain Rain
12:55 AM 62.1 °F - 61.7 °F 99% 30.03 in 7.0 mi South 6.9 mph - 0.15 in Rain Heavy Rain
1:15 AM 62.1 °F - 61.7 °F 99% 30.03 in 5.0 mi South 6.9 mph - 0.05 in Rain Heavy Rain
1:35 AM 62.1 °F - 61.7 °F 99% 30.01 in 10.0 mi South 8.1 mph - 0.09 in Rain Rain
1:55 AM 62.2 °F - 61.7 °F 98% 30.01 in 10.0 mi SSW 6.9 mph - 0.10 in Rain Light Rain
2:15 AM 62.1 °F - 61.5 °F 98% 30.02 in 10.0 mi SSW 6.9 mph - 0.01 in Rain Rain
2:35 AM 62.1 °F - 61.3 °F 97% 30.02 in 10.0 mi South 8.1 mph - 0.02 in Rain Light Rain
2:55 AM 62.2 °F - 61.2 °F 96% 30.02 in 10.0 mi South 8.1 mph - 0.02 in Rain Rain
3:15 AM 62.1 °F - 61.2 °F 97% 30.01 in 7.0 mi South 8.1 mph - 0.02 in Rain Rain
3:35 AM 61.9 °F - 61.2 °F 97% 30.01 in 10.0 mi SSW 5.8 mph - 0.05 in Rain Rain
3:55 AM 61.7 °F - 61.2 °F 98% 30.00 in 10.0 mi South 4.6 mph - 0.08 in Rain Rain
4:15 AM 61.7 °F - 61.0 °F 97% 29.99 in 10.0 mi South 5.8 mph - 0.03 in Rain Rain
4:35 AM 61.5 °F - 61.0 °F 98% 30.00 in 10.0 mi SSW 5.8 mph - 0.07 in Rain Light Rain
4:55 AM 61.2 °F - 60.8 °F 99% 30.01 in 7.0 mi South 8.1 mph - 0.11 in Rain Rain
5:15 AM 61.2 °F - 60.8 °F 99% 30.00 in 7.0 mi SSW 5.8 mph - 0.03 in Rain Rain
5:35 AM 61.2 °F - 60.8 °F 99% 30.00 in 7.0 mi SSW 4.6 mph - 0.08 in Rain Rain
5:55 AM 61.0 °F - 60.4 °F 98% 29.99 in 10.0 mi South 3.5 mph - 0.10 in Rain Rain
6:15 AM 61.0 °F - 60.6 °F 99% 29.99 in 10.0 mi South 4.6 mph - 0.02 in Rain Rain
6:35 AM 61.0 °F - 60.8 °F 99% 29.99 in 10.0 mi South 5.8 mph - 0.04 in Rain Rain
6:55 AM 61.0 °F - 60.4 °F 98% 30.00 in 7.0 mi SSW 5.8 mph - 0.07 in Rain Rain
7:15 AM 61.2 °F - 60.8 °F 99% 30.01 in 10.0 mi SSW 5.8 mph - 0.02 in Rain Light Rain
7:35 AM 61.3 °F - 60.8 °F 98% 30.03 in 10.0 mi SSW 10.4 mph - 0.04 in Rain Rain
7:55 AM 61.3 °F - 60.8 °F 98% 30.03 in 7.0 mi SSW 8.1 mph - 0.08 in Rain Heavy Rain
8:15 AM 61.0 °F - 60.3 °F 97% 30.04 in 7.0 mi SW 9.2 mph - 0.03 in Rain Rain
8:35 AM 60.8 °F - 59.9 °F 97% 30.04 in 7.0 mi SSW 9.2 mph - 0.07 in Rain Rain
8:55 AM 60.4 °F - 59.5 °F 97% 30.05 in 10.0 mi SSW 9.2 mph - 0.09 in Rain Light Rain
9:15 AM 60.1 °F - 59.0 °F 96% 30.05 in 10.0 mi SW 5.8 mph - 0.01 in Rain Light Rain
9:35 AM 59.9 °F - 59.0 °F 97% 30.06 in 7.0 mi SW 4.6 mph - 0.03 in Rain Rain
9:55 AM 59.4 °F - 58.1 °F 96% 30.06 in 7.0 mi SSW 5.8 mph - 0.07 in Rain Light Rain
10:15 AM 59.0 °F - 57.6 °F 95% 30.05 in 10.0 mi SSW 8.1 mph - 0.01 in Rain Light Rain
10:35 AM 59.0 °F - 57.7 °F 96% 30.05 in 10.0 mi WSW 3.5 mph - 0.02 in Rain Rain
10:55 AM 58.6 °F - 57.7 °F 97% 30.06 in 10.0 mi WSW 3.5 mph - 0.02 in   Overcast
11:15 AM 58.6 °F - 57.7 °F 97% 30.06 in 10.0 mi WSW 4.6 mph - N/A   Overcast
11:35 AM 58.6 °F - 57.4 °F 96% 30.07 in 10.0 mi WSW 4.6 mph - N/A   Overcast
11:55 AM 54.1 °F - 52.3 °F 94% 30.06 in 4.0 mi NNW 6.9 mph - 0.01 in   Heavy Drizzle
12:15 PM 53.6 °F - 52.2 °F 95% 30.06 in 2.5 mi NNW 4.6 mph - N/A   Drizzle
12:35 PM 53.2 °F - 51.8 °F 95% 30.05 in 4.0 mi Calm Calm - N/A   Drizzle
12:55 PM 53.6 °F - 52.5 °F 96% 30.05 in 10.0 mi Calm Calm - N/A   Light Drizzle
1:15 PM 53.6 °F - 52.7 °F 97% 30.05 in 10.0 mi ESE 3.5 mph - N/A Rain Rain
1:35 PM 53.8 °F - 52.7 °F 96% 30.04 in 10.0 mi Calm Calm - N/A   Overcast
1:55 PM 54.3 °F - 52.7 °F 94% 30.04 in 10.0 mi Calm Calm - N/A   Overcast
2:15 PM 55.0 °F - 53.1 °F 93% 30.04 in 10.0 mi Calm Calm - N/A   Overcast
2:35 PM 55.4 °F - 53.6 °F 94% 30.05 in 10.0 mi Calm Calm - N/A   Overcast
2:55 PM 55.6 °F - 53.8 °F 94% 30.06 in 10.0 mi Calm Calm - N/A   Overcast
3:15 PM 56.3 °F - 53.2 °F 89% 30.06 in 10.0 mi WNW 3.5 mph - N/A   Overcast
3:35 PM 56.3 °F - 52.2 °F 86% 30.06 in 10.0 mi WNW 5.8 mph - N/A   Overcast
3:55 PM 55.6 °F - 48.7 °F 78% 30.07 in 10.0 mi NW 5.8 mph - N/A   Overcast
4:15 PM 54.7 °F - 48.7 °F 80% 30.08 in 10.0 mi NW 4.6 mph - N/A   Overcast
4:35 PM 54.7 °F - 49.1 °F 81% 30.08 in 10.0 mi North 4.6 mph - N/A   Overcast
4:55 PM 53.8 °F - 47.5 °F 79% 30.09 in 10.0 mi Calm Calm - N/A   Overcast
5:15 PM 53.1 °F - 46.2 °F 78% 30.10 in 10.0 mi North 6.9 mph - N/A   Overcast
5:35 PM 52.2 °F - 43.3 °F 72% 30.10 in 10.0 mi North 10.4 mph - N/A   Overcast
5:55 PM 51.4 °F - 42.8 °F 72% 30.10 in 10.0 mi North 8.1 mph - N/A   Overcast
6:15 PM 50.9 °F - 41.9 °F 71% 30.11 in 10.0 mi North 5.8 mph - N/A   Overcast
6:35 PM 50.2 °F - 41.2 °F 71% 30.12 in 10.0 mi North 4.6 mph - N/A   Overcast
6:55 PM 49.5 °F - 40.5 °F 71% 30.12 in 10.0 mi North 5.8 mph - N/A   Overcast
7:15 PM 48.9 °F - 39.6 °F 70% 30.13 in 10.0 mi North 4.6 mph - N/A   Overcast
7:35 PM 48.0 °F - 39.6 °F 73% 30.13 in 10.0 mi North 3.5 mph - N/A   Mostly Cloudy
7:55 PM 47.8 °F - 39.2 °F 72% 30.14 in 10.0 mi North 5.8 mph - N/A   Mostly Cloudy
8:15 PM 47.1 °F - 38.7 °F 72% 30.14 in 10.0 mi North 8.1 mph - N/A   Mostly Cloudy
8:35 PM 47.3 °F - 36.7 °F 67% 30.15 in 10.0 mi North 9.2 mph - N/A   Overcast
8:55 PM 46.4 °F 44.3 °F 36.5 °F 68% 30.15 in 10.0 mi North 4.6 mph - N/A   Overcast
9:15 PM 45.5 °F 41.3 °F 36.3 °F 70% 30.16 in 10.0 mi North 8.1 mph - N/A   Overcast
9:35 PM 45.0 °F 40.6 °F 34.9 °F 68% 30.16 in 10.0 mi North 8.1 mph - N/A   Overcast
9:55 PM 44.6 °F 40.7 °F 34.9 °F 69% 30.18 in 10.0 mi North 6.9 mph 16.1 mph N/A   Overcast
10:15 PM 43.9 °F 39.3 °F 34.3 °F 69% 30.18 in 10.0 mi North 8.1 mph - N/A   Overcast
10:35 PM 43.7 °F 39.7 °F 33.3 °F 67% 30.18 in 10.0 mi North 6.9 mph - N/A   Overcast
10:55 PM 43.0 °F 37.7 °F 32.9 °F 68% 30.18 in 10.0 mi North 9.2 mph - N/A   Overcast
11:15 PM 42.4 °F 37.5 °F 32.7 °F 68% 30.18 in 10.0 mi NNE 8.1 mph - N/A   Overcast
11:35 PM 41.9 °F 36.3 °F 32.0 °F 68% 30.18 in 10.0 mi North 9.2 mph - N/A   Overcast
11:55 PM 41.4 °F 35.7 °F 32.0 °F 69% 30.18 in 10.0 mi NNE 9.2 mph - N/A   Overcast